AB8Y-13 Weather Reports


time (UTC)temp
C
wind
direction
speed
KPH
gust
KPH
rain 1hr
cm
rain 24hr
cm
rain mn
cm
humidity
%
barometer
mb
20260502151924 7 259 6.4 9.7 0.00 0.00 0.00 45 1018.2
20260502151420 7 319 3.2 4.8 0.00 0.00 0.00 41 1018.6
20260502150918 6 218 4.8 6.4 0.00 0.00 0.00 47 1018.3
20260502150414 6 275 3.2 4.8 0.00 0.00 0.00 48 1018.6
20260502130300 5 266 1.6 3.2 0.00 0.00 0.00 62 1018.7
20260502123746 5 211 3.2 6.4 0.00 0.00 0.00 65 1018.9
20260502123242 4 53 0.0 0.0 0.00 0.00 0.00 66 1018.9
20260502122739 4 35 6.4 6.4 0.00 0.00 0.00 69 1018.8
20260502122235 3 315 1.6 1.6 0.00 0.00 0.00 69 1018.7
20260502121734 3 50 3.2 4.8 0.00 0.00 0.00 69 1018.9
20260502121231 3 133 0.0 0.0 0.00 0.00 0.00 71 1018.9
20260502120727 3 116 0.0 0.0 0.00 0.00 0.00 73 1018.8
20260502120224 2 77 0.0 0.0 0.00 0.00 0.00 75 1018.7
20260502115722 2 74 0.0 0.0 0.00 0.00 0.00 76 1018.8
20260502115219 2 75 0.0 1.6 0.00 0.00 0.00 75 1018.8
20260502114714 2 74 0.0 0.0 0.00 0.00 0.00 81 1018.9
20260502114212 1 73 0.0 0.0 0.00 0.00 0.00 87 1018.6
20260502113709 1 73 0.0 0.0 0.00 0.00 0.00 95 1018.6
20260502113207 0 73 0.0 0.0 0.00 0.00 0.00 95 1018.6
20260502112705 0 73 0.0 0.0 0.00 0.00 0.00 95 1018.6
20260502112202 0 73 0.0 0.0 0.00 0.00 0.00 95 1018.7
20260502111659 -1 73 0.0 0.0 0.00 0.00 0.00 95 1018.6
20260502111157 -1 73 0.0 0.0 0.00 0.00 0.00 95 1018.6
20260502110654 -1 73 0.0 0.0 0.00 0.00 0.00 94 1018.7
20260502110151 -1 73 0.0 0.0 0.00 0.00 0.00 94 1018.4
20260502105649 -1 73 0.0 0.0 0.00 0.00 0.00 94 1018.4
20260502105146 -1 73 0.0 0.0 0.00 0.00 0.00 94 1018.5
20260502104643 -1 74 0.0 0.0 0.00 0.00 0.00 94 1018.4
20260502104140 -1 74 0.0 0.0 0.00 0.00 0.00 94 1018.4
20260502103638 -1 74 0.0 0.0 0.00 0.00 0.00 94 1018.3
20260502103136 -1 74 0.0 0.0 0.00 0.00 0.00 94 1018.3
20260502102632 -1 74 0.0 0.0 0.00 0.00 0.00 94 1018.4
20260502102129 -1 74 0.0 0.0 0.00 0.00 0.00 94 1018.0
20260502101627 -1 74 0.0 0.0 0.00 0.00 0.00 94 1018.1
20260502101125 -1 74 0.0 0.0 0.00 0.00 0.00 94 1018.3
20260502100624 -1 74 0.0 0.0 0.00 0.00 0.00 94 1018.2
20260502100121 0 74 0.0 0.0 0.00 0.00 0.00 94 1018.1
20260502091055 0 74 0.0 0.0 0.00 0.00 0.00 93 1018.0
20260502090552 0 74 0.0 0.0 0.00 0.00 0.00 93 1017.8
20260502071446 1 74 0.0 0.0 0.00 0.00 0.00 88 1017.5
20260502070944 1 74 0.0 0.0 0.00 0.00 0.00 88 1017.6
20260502070442 2 73 0.0 0.0 0.00 0.00 0.00 87 1017.5
20260502065940 2 73 0.0 0.0 0.00 0.00 0.00 87 1017.3
20260502065439 2 74 0.0 0.0 0.00 0.00 0.00 86 1017.6
20260502064936 2 74 0.0 0.0 0.00 0.00 0.00 85 1017.7
20260502064434 2 74 0.0 0.0 0.00 0.00 0.00 85 1017.7
20260502063931 2 74 0.0 0.0 0.00 0.00 0.00 84 1017.6
20260502063429 2 74 0.0 0.0 0.00 0.00 0.00 84 1017.6
20260502062926 2 73 0.0 0.0 0.00 0.00 0.00 84 1017.5
20260502062423 2 74 0.0 0.0 0.00 0.00 0.00 84 1017.7
20260502061922 2 74 0.0 0.0 0.00 0.00 0.00 84 1017.8
20260502061420 2 73 0.0 0.0 0.00 0.00 0.00 83 1017.8
20260502060915 2 73 0.0 0.0 0.00 0.00 0.00 83 1017.8
20260502060410 2 73 0.0 0.0 0.00 0.00 0.00 82 1017.7
20260502055908 2 73 0.0 0.0 0.00 0.00 0.00 81 1017.8
20260502055405 2 73 0.0 0.0 0.00 0.00 0.00 81 1018.1
20260502054900 2 74 0.0 0.0 0.00 0.00 0.00 80 1017.9
20260502054357 2 74 0.0 0.0 0.00 0.00 0.00 81 1017.7
20260502053854 2 74 0.0 0.0 0.00 0.00 0.00 80 1017.9
20260502053351 2 74 0.0 0.0 0.00 0.00 0.00 81 1017.7
20260502052849 2 74 0.0 0.0 0.00 0.00 0.00 79 1017.9
20260502052347 2 74 0.0 0.0 0.00 0.00 0.00 80 1017.8
20260502051844 2 73 0.0 0.0 0.00 0.00 0.00 80 1017.8
20260502051343 3 73 0.0 0.0 0.00 0.00 0.00 78 1017.8
20260502050839 3 73 0.0 0.0 0.00 0.00 0.00 78 1017.8
20260502050335 3 73 0.0 0.0 0.00 0.00 0.00 77 1017.7
20260502045832 3 73 0.0 0.0 0.00 0.00 0.00 77 1017.7
20260502045329 3 74 1.6 1.6 0.00 0.00 0.00 77 1017.7
20260502044826 3 73 0.0 0.0 0.00 0.00 0.00 76 1017.6
20260502044322 3 55 0.0 0.0 0.00 0.00 0.00 75 1017.8
20260502043820 3 56 1.6 1.6 0.00 0.00 0.00 75 1017.6
20260502043317 3 54 0.0 0.0 0.00 0.00 0.00 74 1017.7
20260502042817 3 40 0.0 0.0 0.00 0.00 0.00 73 1017.5
20260502042314 3 39 1.6 1.6 0.00 0.00 0.00 73 1017.6
20260502041812 3 70 1.6 1.6 0.00 0.00 0.00 72 1017.6
20260502041309 3 73 0.0 0.0 0.00 0.00 0.00 72 1017.3
20260502040806 4 75 0.0 1.6 0.00 0.00 0.00 71 1017.2
20260502040303 4 76 3.2 3.2 0.00 0.00 0.00 70 1017.3
20260502035759 4 70 0.0 0.0 0.00 0.00 0.00 69 1017.1
20260502035255 4 71 1.6 1.6 0.00 0.00 0.00 68 1017.1
20260502034752 4 66 3.2 3.2 0.00 0.00 0.00 67 1017.2
20260502034251 4 64 1.6 1.6 0.00 0.00 0.00 66 1017.5
20260502033749 4 62 1.6 1.6 0.00 0.00 0.00 64 1017.3
20260502033246 4 13 1.6 1.6 0.00 0.00 0.00 63 1017.3
20260502032743 4 62 1.6 1.6 0.00 0.00 0.00 57 1017.1
20260502032239 4 62 0.0 0.0 0.00 0.00 0.00 57 1017.2
20260502031737 4 65 0.0 0.0 0.00 0.00 0.00 58 1017.0
20260502031235 4 65 0.0 0.0 0.00 0.00 0.00 55 1017.2
20260502030733 5 68 0.0 0.0 0.00 0.00 0.00 56 1017.1
20260502030231 5 127 0.0 0.0 0.00 0.00 0.00 55 1017.0
20260502025728 5 137 1.6 1.6 0.00 0.00 0.00 59 1017.0
20260502025226 5 138 0.0 0.0 0.00 0.00 0.00 59 1017.0
20260502024723 5 107 1.6 1.6 0.00 0.00 0.00 56 1016.9
20260502024221 5 74 1.6 3.2 0.00 0.00 0.00 57 1017.1
20260502023719 5 75 0.0 0.0 0.00 0.00 0.00 54 1017.0
20260502023216 5 47 0.0 0.0 0.00 0.00 0.00 55 1016.9
20260502022714 5 46 0.0 0.0 0.00 0.00 0.00 56 1016.9
20260502022210 5 40 1.6 1.6 0.00 0.00 0.00 53 1016.8
20260502021707 5 65 1.6 1.6 0.00 0.00 0.00 54 1016.7
20260502021204 5 28 0.0 0.0 0.00 0.00 0.00 55 1016.8
20260502020701 5 54 1.6 1.6 0.00 0.00 0.00 56 1016.7
20260502020158 5 153 4.8 4.8 0.00 0.00 0.00 52 1016.8
20260502015656 5 91 1.6 1.6 0.00 0.00 0.00 54 1016.8
20260502015152 5 76 1.6 1.6 0.00 0.00 0.00 54 1016.6
20260502014650 5 92 0.0 0.0 0.00 0.00 0.00 58 1016.7
20260502014146 5 75 0.0 0.0 0.00 0.00 0.00 56 1016.5
20260502013642 5 70 0.0 0.0 0.00 0.00 0.00 58 1016.6
20260502013138 4 67 1.6 1.6 0.00 0.00 0.00 65 1016.9
20260502012636 5 57 0.0 0.0 0.00 0.00 0.00 61 1016.8
20260502012134 5 57 0.0 0.0 0.00 0.00 0.00 63 1016.6
20260502011630 5 57 0.0 0.0 0.00 0.00 0.00 57 1016.6
20260502011126 5 57 0.0 0.0 0.00 0.00 0.00 57 1016.5
20260502010624 5 55 1.6 1.6 0.00 0.00 0.00 57 1016.6
20260502010120 5 55 0.0 0.0 0.00 0.00 0.00 57 1016.4
20260502005618 5 52 0.0 1.6 0.00 0.00 0.00 56 1016.5
20260502005115 5 30 3.2 3.2 0.00 0.00 0.00 54 1016.4
20260502004610 5 62 1.6 1.6 0.00 0.00 0.00 56 1016.3
20260502004108 5 73 6.4 6.4 0.00 0.00 0.00 54 1016.2
20260502003606 6 17 3.2 3.2 0.00 0.00 0.00 58 1016.1
20260502003102 6 55 1.6 1.6 0.00 0.00 0.00 56 1016.1
20260502002558 6 51 0.0 0.0 0.00 0.00 0.00 57 1016.0
20260502002056 6 55 0.0 0.0 0.00 0.00 0.00 56 1016.0
20260502001554 6 55 1.6 1.6 0.00 0.00 0.00 54 1015.9
20260502001050 6 62 1.6 3.2 0.00 0.00 0.00 53 1015.8
20260502000549 6 60 1.6 1.6 0.00 0.00 0.00 51 1016.0
20260502000046 6 55 0.0 0.0 0.00 0.00 0.00 55 1015.6
20260501235541 6 43 0.0 0.0 0.00 0.00 0.00 51 1015.6
20260501235038 6 49 1.6 3.2 0.00 0.00 0.00 51 1015.7
20260501234533 6 75 3.2 4.8 0.00 0.00 0.00 48 1015.6
20260501234032 7 92 0.0 0.0 0.00 0.00 0.00 50 1015.6
20260501233529 7 175 0.0 0.0 0.00 0.00 0.00 51 1015.5
20260501233026 7 175 0.0 0.0 0.00 0.00 0.00 50 1015.7
20260501232522 7 202 1.6 1.6 0.00 0.00 0.00 49 1015.5
20260501232020 7 24 0.0 1.6 0.00 0.00 0.00 49 1015.6
20260501231517 7 261 3.2 3.2 0.00 0.00 0.00 48 1015.4
20260501231015 7 209 1.6 3.2 0.00 0.00 0.00 50 1015.4
20260501230514 7 83 1.6 1.6 0.00 0.00 0.00 48 1015.6
20260501230011 7 75 0.0 1.6 0.00 0.00 0.00 54 1015.2
20260501225510 7 74 0.0 0.0 0.00 0.00 0.00 55 1015.4
20260501225004 7 72 1.6 1.6 0.00 0.00 0.00 50 1015.3
20260501224503 7 71 0.0 0.0 0.00 0.00 0.00 54 1015.3
20260501223959 7 72 0.0 0.0 0.00 0.00 0.00 51 1015.4
20260501223455 7 72 0.0 0.0 0.00 0.00 0.00 53 1015.4
20260501222951 7 71 1.6 3.2 0.00 0.00 0.00 54 1015.6
20260501222448 7 80 0.0 0.0 0.00 0.00 0.00 55 1015.3
20260501221944 7 78 0.0 0.0 0.00 0.00 0.00 57 1015.4
20260501221442 7 78 0.0 0.0 0.00 0.00 0.00 56 1015.4
20260501220940 7 77 1.6 0.0 0.00 0.00 0.00 55 1015.3
20260501220437 7 73 0.0 1.6 0.00 0.00 0.00 54 1015.4
20260501215932 7 58 1.6 1.6 0.00 0.00 0.00 55 1015.3
20260501215430 7 67 1.6 1.6 0.00 0.00 0.00 56 1015.2
20260501214925 7 61 0.0 1.6 0.00 0.00 0.00 54 1015.3
20260501214421 7 63 0.0 0.0 0.00 0.00 0.00 55 1015.2
20260501213916 7 43 3.2 3.2 0.00 0.00 0.00 52 1015.4
20260501213414 7 116 1.6 1.6 0.00 0.00 0.00 56 1015.4
20260501212909 7 210 1.6 1.6 0.00 0.00 0.00 55 1015.2
20260501212406 7 208 0.0 1.6 0.00 0.00 0.00 51 1015.3
20260501211903 7 64 3.2 3.2 0.00 0.00 0.00 52 1015.2
20260501211400 7 142 0.0 0.0 0.00 0.00 0.00 54 1015.1
20260501210858 7 133 0.0 0.0 0.00 0.00 0.00 52 1015.0
20260501210354 7 161 3.2 4.8 0.00 0.00 0.00 53 1015.2
20260501205851 7 276 3.2 3.2 0.00 0.00 0.00 57 1015.1
20260501205348 7 183 1.6 1.6 0.00 0.00 0.00 56 1015.2
20260501204845 7 176 1.6 1.6 0.00 0.00 0.00 54 1015.0
20260501204341 7 65 1.6 3.2 0.00 0.00 0.00 55 1015.1
20260501203837 7 78 1.6 1.6 0.00 0.00 0.00 56 1015.1
20260501203335 7 1 1.6 1.6 0.00 0.00 0.00 51 1014.9
20260501202831 7 165 1.6 1.6 0.00 0.00 0.00 53 1015.1
20260501202328 8 252 3.2 3.2 0.00 0.00 0.00 51 1015.1
20260501201825 8 199 3.2 3.2 0.00 0.00 0.00 51 1015.0
20260501201322 8 166 6.4 6.4 0.00 0.00 0.00 50 1015.1
20260501200819 7 196 4.8 4.8 0.00 0.00 0.00 50 1014.9
20260501200316 7 179 0.0 0.0 0.00 0.00 0.00 51 1014.7
20260501195814 7 216 0.0 0.0 0.00 0.00 0.00 52 1014.9
20260501195309 7 51 0.0 1.6 0.00 0.00 0.00 50 1015.0
20260501194805 7 54 1.6 1.6 0.00 0.00 0.00 55 1015.1
20260501194301 7 51 1.6 3.2 0.00 0.00 0.00 54 1015.0
20260501193758 7 133 1.6 1.6 0.00 0.00 0.00 53 1015.1
20260501193257 7 214 1.6 1.6 0.00 0.00 0.00 51 1015.0
20260501192753 7 60 1.6 1.6 0.00 0.00 0.00 53 1014.8
20260501192250 7 32 1.6 1.6 0.00 0.00 0.00 54 1014.8
20260501191748 7 40 3.2 3.2 0.00 0.00 0.00 51 1015.0
20260501191245 7 49 0.0 0.0 0.00 0.00 0.00 52 1014.9
20260501190741 8 60 1.6 1.6 0.00 0.00 0.00 50 1014.7
20260501190237 8 51 4.8 4.8 0.00 0.00 0.00 45 1014.7
20260501185733 8 257 3.2 4.8 0.00 0.00 0.00 46 1014.4
20260501185229 8 293 3.2 3.2 0.00 0.00 0.00 46 1014.6
20260501184725 8 303 3.2 4.8 0.00 0.00 0.00 46 1014.8
20260501184221 8 53 3.2 4.8 0.00 0.00 0.00 48 1014.5
20260501183717 8 69 3.2 3.2 0.00 0.00 0.00 46 1014.6
20260501183214 8 223 8.0 9.7 0.00 0.00 0.00 46 1014.7
20260501182710 8 59 4.8 4.8 0.00 0.00 0.00 47 1014.6
20260501182207 8 99 1.6 1.6 0.00 0.00 0.00 49 1014.5
20260501181704 8 55 1.6 1.6 0.00 0.00 0.00 49 1014.5
20260501181201 7 65 3.2 4.8 0.00 0.00 0.00 50 1014.6
20260501180659 7 64 3.2 4.8 0.00 0.00 0.00 51 1014.7
20260501180155 8 76 3.2 3.2 0.00 0.00 0.00 52 1014.5
20260501175651 8 90 1.6 1.6 0.00 0.00 0.00 56 1014.5
20260501175149 8 13 4.8 4.8 0.00 0.00 0.00 51 1014.4
20260501174645 8 308 1.6 1.6 0.00 0.00 0.00 50 1014.5
20260501174143 8 43 0.0 0.0 0.00 0.00 0.00 48 1014.6
20260501173640 8 8 3.2 3.2 0.00 0.00 0.00 52 1014.4
20260501173137 7 351 3.2 6.4 0.00 0.00 0.00 55 1014.6
20260501172633 8 55 4.8 9.7 0.00 0.00 0.00 53 1014.8
20260501172128 9 64 6.4 9.7 0.00 0.00 0.00 50 1014.6
20260501171624 8 352 3.2 3.2 0.00 0.00 0.00 55 1014.6
20260501171121 8 270 3.2 3.2 0.00 0.00 0.00 52 1014.6
20260501170619 8 34 3.2 3.2 0.00 0.00 0.00 55 1014.7
20260501170115 8 61 1.6 4.8 0.00 0.00 0.00 52 1014.6
20260501165612 8 210 1.6 1.6 0.00 0.00 0.00 50 1014.8
20260501165110 8 58 6.4 6.4 0.00 0.00 0.00 53 1014.8
20260501164608 9 68 3.2 3.2 0.00 0.00 0.00 51 1014.8
20260501164104 8 68 3.2 4.8 0.00 0.00 0.00 51 1014.8
20260501163601 8 307 1.6 1.6 0.00 0.00 0.00 54 1015.0
20260501163058 8 76 4.8 6.4 0.00 0.00 0.00 53 1014.8
20260501162554 9 52 6.4 9.7 0.00 0.00 0.00 51 1014.7
20260501162051 8 51 9.7 14.5 0.00 0.00 0.00 52 1014.9
20260501161548 8 84 1.6 1.6 0.00 0.00 0.00 54 1014.9
20260501161045 8 117 0.0 1.6 0.00 0.00 0.00 54 1014.8
20260501160542 8 77 6.4 11.3 0.00 0.00 0.00 52 1014.8